Regional Weather Roundup
Issued by NWS

Home | Current Version | Previous Version | Text Only | Print | Product List | Glossary On
Versions: 1 2 3 4 5 6 7 8 9 10 11 12 13 14 15 16 17 18 19 20 21 22 23 24 25 26 27 28 29 30 31 32 33 34 35 36 37 38 39 40 41 42 43 44 45 46 47 48 49 50
000
ASUS44 KFWD 282103
RWRTX
NORTH TEXAS HOURLY WEATHER ROUNDUP
NATIONAL WEATHER SERVICE FORT WORTH TX
400 PM CDT FRI AUG 28 2015

NOTE: "FAIR" INDICATES FEW OR NO CLOUDS BELOW 12,000 FEET WITH NO
SIGNIFICANT WEATHER AND/OR OBSTRUCTIONS TO VISIBILITY.

TXZ118-119-282200-
DALLAS/FORT WORTH METROPLEX

CITY           SKY/WX    TMP DP  RH WIND       PRES   REMARKS
DFW AIRPORT    PTSUNNY   97  61  30 S10       29.92F HX  97
DALLAS LOVE    MOSUNNY   96  63  33 SE12      29.92F HX  97
FTW MEACHAM    SUNNY     98  61  29 SE9G18    29.92F HX  98
DAL-EXECUTIVE  SUNNY     96  61  31 CALM      29.93F HX  96
FTW-ALLIANCE   MOSUNNY   97  61  30 SE8       29.92F HX  97
FTW-NAS-JRB    MOSUNNY   98  61  29 S8G23     29.92F HX  98
FTW-SPINKS     SUNNY     97  61  30 SE6       29.95F HX  97
ARLINGTON      SUNNY     97  59  28 E7        29.93F HX  96
GRAND PRAIRIE  SUNNY     93  63  36 E8        29.94F HX  94
ADDISON        SUNNY     93  59  31 E8        29.95F HX  92
MESQUITE       SUNNY     93  59  31 SE3       29.94F HX  92
LANCASTER      SUNNY     95  58  29 SE9       29.94F HX  94
$$

TXZ091>094-102>105-117-120-121-131>134-282200-
NORTH CENTRAL TEXAS

CITY           SKY/WX    TMP DP  RH WIND       PRES   REMARKS
SHRMAN/DENISON SUNNY     93  64  37 SE9       29.95F HX  95
BOWIE          PTSUNNY   91  62  37 SE6       29.93F HX  92
BRIDGEPORT     MOSUNNY   96  64  35 SE3       29.94F HX  98
DECATUR        MOSUNNY   95  60  30 S9        29.94F HX  94
DENTON         MOSUNNY   93  62  35 SE9       29.92F HX  93
MCKINNEY       SUNNY     93  61  34 SE9       29.94F HX  93
ROCKWALL       SUNNY     94  64  37 S8        29.93F HX  96
TERRELL        SUNNY     92  64  39 SE8       29.95F HX  93
WAXAHACHIE     SUNNY     94  64  36 S8        29.95F HX  96
CLEBURNE         N/A     95  63  34 SE9       29.96F HX  96
$$

TXZ083>090-098>101-113>116-127>130-139>142-154-155-282200-
WESTERN NORTH TEXAS

CITY           SKY/WX    TMP DP  RH WIND       PRES   REMARKS
WICHITA FALLS  PTSUNNY   94  64  37 SE6       29.92S HX  95
WF-KICKAPOO    PTSUNNY   97  60  28 SE3       29.93F HX  97
VERNON         CLOUDY    96  50  21 NE5       29.93S HX  92
ABILENE        MOSUNNY   98  50  19 SW10G20   29.95F HX  95
ABILENE-DYESS  MOSUNNY   98  52  21 S8G17     29.93F HX  95
BRECKENRIDGE   MOSUNNY   98  56  25 S12       29.93F HAZE    HX  96
MINERAL WELLS  MOSUNNY   95  65  37 VRB7      29.92F HX  97
STEPHENVILLE   SUNNY     94  59  31 CALM      29.98F HX  93
COMANCHE       SUNNY     97  57  26 CALM      29.95F HX  96
COLEMAN        SUNNY     97  55  24 S7        29.96F HX  95
BRADY          SUNNY    100  54  20 SW6       29.96F HX  98
$$

TXZ143>147-156>162-174-175-282200-
CENTRAL TEXAS

CITY           SKY/WX    TMP DP  RH WIND       PRES   REMARKS
WACO           SUNNY     96  59  29 E8        29.93F HX  95
WACO-TSTC      SUNNY     93  59  31 S6        29.94F HX  92
CORSICANA      SUNNY     94  62  34 CALM      29.96F HX  94
MEXIA          SUNNY     95  61  31 SE9       29.94F HX  95
HEARNE         SUNNY     93  62  34 CALM      29.96F HX  93
TEMPLE         SUNNY     95  61  31 SE9       29.95F HX  95
KILLEEN        SUNNY     95  57  27 E3        29.94F HX  93
KILLEEN-SKYLRK SUNNY     95  61  31 SE9       29.94F HX  95
FORT HOOD      SUNNY     95  60  31 SE8       29.93F HX  95
HAMILTON       SUNNY     97  56  25 SE10      29.97F HX  95
LAMPASAS       SUNNY     96  57  26 S7        29.95F HX  94
$$

TXZ095>097-106>112-122>126-135>138-148>153-164>167-282200-
EAST TEXAS

CITY           SKY/WX    TMP DP  RH WIND       PRES   REMARKS
PARIS          MOSUNNY   91  61  35 S14       29.96F HX  91
GILMER         SUNNY     88  60  39 CALM      29.98F
MINEOLA        SUNNY     90  57  33 SE3       29.98F
TYLER          SUNNY     91  62  37 E8        29.97F HX  91
LONGVIEW       SUNNY     88  63  43 SE9       29.97F
MARSHALL       SUNNY     89  61  38 CALM      29.99F
ATHENS         SUNNY     88  63  42 CALM      29.95F
PALESTINE      PTSUNNY   92  64  38 NE5       29.97F HX  93
JACKSONVILLE   SUNNY     90  57  32 N5        30.00F
HENDERSON      SUNNY     89  59  36 E5        29.98F
CENTER         FAIR      91  60  34 NW7       29.96F HX  90
NACOGDOCHES    SUNNY     91  61  35 E6        29.96F HX  91
LUFKIN         SUNNY     92  61  35 VRB7      29.96F HX  92
$$

SUPPLEMENTAL OBSERVATIONS (CENTRAL)

CITY           SKY/WX    TMP DP  RH WIND       PRES   REMARKS
$$

SUPPLEMENTAL OBSERVATIONS (WEST)

CITY           SKY/WX    TMP DP  RH WIND       PRES   REMARKS
$$

SUPPLEMENTAL OBSERVATIONS (EAST)

CITY           SKY/WX    TMP DP  RH WIND       PRES   REMARKS
$$

SUPPLEMENTAL OBSERVATIONS ARE A COLLECTION OF AUTOMATED INSTRUMENTS
THAT ARE MAINTAINED BY A VARIETY OF FEDERAL AND STATE AGENCIES.
CERTAIN ELEMENTS...SUCH AS HUMIDITY VALUES AND SUSTAINED WIND
SPEEDS...MAY BE APPROXIMATED.




USA.gov is the U.S. government's official web portal to all federal, state and local government web resources and services.